STARLINK-30358, 57879

Orbit data source: Space-Track

STARLINK-30358, 57879 is a payload satellite owned by SpaceX/Seattle (US) in LEO that was launched on Sat, 16 Sep 2023 UTC via an FALCON 9 launch vehicle from the Air Force Eastern Test Range (AFETR). Payload-class satellites include a variety of spacecraft equipped with specific instruments for various scientific and technological missions. These include communications satellites like Starlink; space stations such as the ISS; scientific satellites like the Hubble; Earth observation satellites from companies like Planet Labs, Umbra, and HawkEye 360; GPS; miniature CubeSats for education and research; and military/defense satellites.

Loading next visibility...
Identifier
57879, 2023-144R
Orbit
LEO
Country
Flag of USUS
Related business
Manufacturer
SpaceX/Seattle
Mission
Operational Commercial Communications
Bus & Motor
STARLINK V2M, Unknown motor
Mass
730 kg wet, ~700 kg dry
Launch date (UTC)
2023-09-16 (2 years ago)
Launch vehicle
FALCON 9
Launch site
Air Force Eastern Test Range (AFETR)
Object type
Payload
Rocket body
Debris
Shape & HBR
Box + 2 Pan, 17.7 m
Radar Cross Section
33.884 m², Large (>1 m²)

Expand to show TLE details & history
Last TLE update: 1 day ago

TLE from 1 day ago
0 STARLINK-30358
1 57879U 23144R   25348.54919511  .00002726  00000-0  21676-3 0  9999
2 57879  43.0048  30.0748 0001110 284.6128  75.4592 15.02537572124807
Epoch: 2025-12-14T13:10Z
TLE epoch observation values (Epoch: 2025-12-14T13:10:50.457Z)
Latitude
0.00003°
Longitude
108.90408°
Altitude
558.66 km
Speed
7.584 km/s
True Right ascension
02h 00m 17s
True Declination
0° 00' 00"
Sunlit
Object was in full shadow at epoch
Visualization orbit readout
Latitude
Unknown
Longitude
Unknown
Altitude
Unknown
Speed
Unknown
Apparent Right ascension
Unknown
Apparent Declination
Unknown
Sunlit
N/A
Visualization observer readout
Local Sidereal Time
13:18:59
Azimuth
Unknown
Elevation
Unknown
Doppler factor
Unknown
Orbital elements
Apogee altitude
561.768 km
Perigee altitude
560.228 km
Semi-major axis
6,939.135 km
Eccentricity
0.00011
Inclination
43.0048°
RAAN
30.0748°
Arg. of periapsis
284.6128°
True anomaly
75.47151°
Mean anomaly
75.4592°
Eccentric anomaly
75.46536°
Mean motion
3.75479 °/min
Orbital period
95.88 mins
BSTAR
0.00021676
Loading maneuver chart data...
Computing Atmospheric mass density...
Loading historical data...
Loading historical data...
Loading historical data...
Loading historical data...
Loading historical data...
Loading historical data...
Loading historical data...

Documentation

Showing up to 5 results
|